Flag for Mexico Weather past 2 weeks in Playa del Carmen, Quintana Roo, Mexico

Now
66 °F

Clear.


Feels Like: 66 °F
Forecast: 62 / 78 °F
Wind: 12 mph from North

Location: Cozumel Civ / Mil

Current Time: Jan 27, 2015 at 8:27:01 PM

Latest Report: Jan 27, 2015 at 7:46 PM


Visibility: 7 mi

Pressure: 30.14 "Hg

Humidity: 78%

Dew point: 59 °F

Location of Playa del CarmenLocation

Historic Weather in Playa del Carmen — Graph

°F

Playa del Carmen temperature yesterday

Maximum temperature yesterday: 77 °F (at 12:45 PM)
Minimum temperature yesterday: 64 °F (at 1:40 AM)
Average temperature yesterday: 68 °F

Past Weeks' High & Low Weather Summary

 TemperatureHumidityPressure
High79 °F (Jan 15, 2:42 PM)100% (Jan 12, 6:48 PM)30.19 "Hg (Jan 12, 6:48 PM)
Low61 °F (Jan 15, 1:43 AM)50% (Jan 25, 1:44 PM)29.93 "Hg (Jan 20, 5:43 PM)
Average70 °F90%30.05 "Hg
* Reported Jan 12 6:48 PM — Jan 27 6:46 PM, Playa del Carmen, Weather by CustomWeather, © 2014

Note: Actual official high and low records may vary slightly from our data, if they occured in-between our weather recording intervals... More about our weather records

Advertising

Playa del Carmen weather history for previous 24 hours

 ConditionsComfort  
Time TempWeatherWind HumidityBarometerVisibility
6:46 PM
Jan 27
68 °FPassing clouds.9 mph69%30.12 "Hg7 mi
5:45 PM70 °FPassing clouds.9 mph64%30.08 "Hg8 mi
4:48 PM70 °FScattered clouds.6 mph69%30.09 "Hg8 mi
3:42 PM72 °FPartly sunny.7 mph65%30.09 "Hg8 mi
2:43 PM72 °FBroken clouds.9 mph65%30.10 "Hg8 mi
1:45 PM72 °FBroken clouds.7 mph61%30.10 "Hg8 mi
12:46 PM70 °FScattered clouds.8 mph64%30.11 "Hg8 mi
11:49 AM70 °FScattered clouds.7 mph64%30.10 "Hg8 mi
10:43 AM70 °FScattered clouds.7 mph64%30.16 "Hg7 mi
9:42 AM68 °FSunny.10 mph69%30.17 "Hg7 mi
8:54 AM68 °FSunny.12 mph73%30.19 "Hg8 mi
7:44 AM64 °FSunny.10 mph78%30.15 "Hg7 mi
6:45 AM63 °FSunny.10 mph83%30.14 "Hg8 mi
5:54 AM63 °FClear.8 mph83%30.11 "Hg7 mi
3:40 AM64 °FClear.14 mph78%30.11 "Hg7 mi
2:43 AM64 °FClear.14 mph78%30.15 "Hg7 mi
1:46 AM64 °FClear.14 mph83%30.12 "Hg7 mi
12:50 AM64 °FPassing clouds.13 mph88%30.13 "Hg7 mi
11:50 PM
Jan 26
66 °FPassing clouds.14 mph83%30.10 "Hg7 mi
10:47 PM66 °FClear.14 mph83%30.14 "Hg7 mi
9:46 PM68 °FClear.16 mph73%30.14 "Hg7 mi
8:41 PM68 °FClear.14 mph73%30.14 "Hg7 mi
Weather by CustomWeather, © 2014

See weather overviewHow to use our weather pages